Date String (YYYY-MM-DD hh:mm:ss) UTC,Instrument flags,absolute air pressure of the measurement (hPa),sample flow rate (lpm),inlet stack bypass flow (lpm),air temperature of the measurement (°C),ambient temperature measured by the external sensor (°C),aerosol sample conditioner tube jacket temperature (°C),OPC LED temperature (°C),internal box temperature (°C),relative humidity of the measurement (%),span deviation,mass concentration of particles derived from Lorenz-Mie calculation of OPC scattering (μg/m³),mass concentration of particles derived from Lorenz-Mie calculation of OPC scattering (μg/m³),mass concentration of particles derived from Lorenz-Mie calculation of OPC scattering (μg/m³)
DateTimeUTC,F1_M11,P_M11,Q1_M11,Q2_M11,T1_M11,T2_M11,T3_M11,T4_M11,T5_M11,U1_M11,ZSPAN_M11,X2_M11,X0_M11,X1_M11
2024-04-06 20:00:00,SystemResetWarning,0809.1,5.00,000.00,018.4,017.3,000.0,027.0,020.1,010.6,0000.0,0009.44,0065.42,0001.83
2024-04-06 20:01:00,SystemResetWarning,0809.3,5.00,000.00,018.5,018.4,000.0,027.1,020.6,010.6,0000.0,0008.57,0057.17,0001.67
2024-04-06 20:02:00,SystemResetWarning,0809.0,4.99,000.00,018.8,019.0,000.0,027.1,021.0,010.5,0000.0,0007.95,0054.33,0001.53
2024-04-06 20:03:00,SystemResetWarning,0809.1,4.99,000.00,018.8,018.9,000.0,027.0,020.8,010.3,0000.0,0007.56,0051.61,0001.43
2024-04-06 20:04:00,SystemResetWarning,0808.8,5.00,000.00,018.8,018.7,000.0,027.0,020.6,010.2,0000.0,0008.03,0054.24,0001.52
2024-04-06 20:05:00,SystemResetWarning,0808.8,5.00,000.00,018.7,018.5,000.0,027.0,020.3,010.3,0000.0,0008.40,0055.18,0001.59
2024-04-06 20:06:00,SystemResetWarning,0809.1,5.01,000.00,018.7,018.2,000.0,027.0,020.2,010.2,0000.0,0008.58,0056.05,0001.61
2024-04-06 20:07:00,SystemResetWarning,0809.0,5.00,000.00,018.6,018.0,000.0,026.9,020.1,010.4,0000.0,0009.03,0058.35,0001.70
2024-04-06 20:08:00,SystemResetWarning,0808.9,4.99,000.00,018.6,017.9,000.0,026.9,020.0,010.4,0000.0,0009.40,0059.59,0001.77
2024-04-06 20:09:00,SystemResetWarning,0808.9,5.00,000.00,018.5,017.7,000.0,027.0,020.0,010.5,0000.0,0009.73,0061.52,0001.82
2024-04-06 20:10:00,SystemResetWarning,0808.9,5.01,000.00,018.5,017.6,000.0,027.0,020.0,010.5,0000.0,0008.77,0056.30,0001.58
2024-04-06 20:11:00,SystemResetWarning,0808.8,5.00,000.00,018.5,017.5,000.0,027.0,020.0,010.5,0000.0,0008.20,0051.13,0001.48
2024-04-06 20:12:00,SystemResetWarning,0809.0,5.01,000.00,018.4,017.4,000.0,027.0,020.0,010.3,0000.0,0008.81,0058.72,0001.60
2024-04-06 20:13:00,SystemResetWarning,0809.0,4.99,000.00,018.4,017.3,000.0,027.0,020.0,010.4,0000.0,0009.90,0067.68,0001.81
2024-04-06 20:14:00,SystemResetWarning,0809.0,4.98,000.00,018.4,017.2,000.0,027.0,020.0,010.2,0000.0,0010.13,0069.53,0001.83
2024-04-06 20:15:00,SystemResetWarning,0808.9,5.01,000.00,018.4,017.2,000.0,027.0,020.0,009.8,0000.0,0009.59,0065.55,0001.72
2024-04-06 20:16:00,SystemResetWarning,0808.9,5.01,000.00,018.4,017.1,000.0,027.0,020.0,009.8,0000.0,0009.34,0064.35,0001.68
2024-04-06 20:17:00,SystemResetWarning,0808.7,4.99,000.00,018.4,017.1,000.0,027.0,020.0,009.7,0000.0,0009.17,0062.19,0001.62
2024-04-06 20:18:00,SystemResetWarning,0808.7,4.99,000.00,018.4,017.1,000.0,027.0,020.0,009.3,0000.0,0009.00,0062.18,0001.57
2024-04-06 20:19:00,SystemResetWarning,0808.7,5.00,000.00,018.4,017.1,000.0,027.0,020.0,009.3,0000.0,0008.98,0063.57,0001.58
2024-04-06 20:20:00,SystemResetWarning,0809.0,5.00,000.00,018.4,017.0,000.0,027.0,020.0,009.2,0000.0,0008.75,0060.31,0001.56
2024-04-06 20:21:00,SystemResetWarning,0808.9,5.01,000.00,018.4,017.5,000.0,027.0,020.2,009.3,0000.0,0008.43,0057.43,0001.52
2024-04-06 20:22:00,SystemResetWarning,0808.9,5.00,000.00,018.6,018.7,000.0,027.1,020.8,008.9,0000.0,0008.10,0055.72,0001.46
2024-04-06 20:23:00,SystemResetWarning,0808.9,4.98,000.00,018.9,019.1,000.0,027.1,021.0,008.6,0000.0,0006.65,0041.82,0001.19
2024-04-06 20:24:00,SystemResetWarning,0808.8,5.00,000.00,018.9,018.9,000.0,027.1,020.8,008.5,0000.0,0005.57,0032.95,0001.00
2024-04-06 20:25:00,SystemResetWarning,0808.9,5.00,000.00,018.8,018.7,000.0,027.0,020.6,008.5,0000.0,0005.51,0032.82,0001.04
2024-04-06 20:26:00,SystemResetWarning,0808.9,5.00,000.00,018.8,018.5,000.0,027.0,020.4,008.6,0000.0,0005.56,0033.61,0001.05
2024-04-06 20:27:00,SystemResetWarning,0809.0,4.99,000.00,018.7,018.2,000.0,027.0,020.2,008.7,0000.0,0005.40,0033.03,0001.02
2024-04-06 20:28:00,SystemResetWarning,0809.0,5.01,000.00,018.7,018.0,000.0,027.0,020.1,008.8,0000.0,0005.07,0031.55,0000.97
2024-04-06 20:29:00,SystemResetWarning,0809.0,5.00,000.00,018.6,017.9,000.0,026.9,020.0,009.0,0000.0,0004.67,0028.43,0000.92
2024-04-06 20:30:00,SystemResetWarning,0808.8,5.00,000.00,018.5,017.7,000.0,027.0,020.0,008.9,0000.0,0004.42,0025.91,0000.87
2024-04-06 20:31:00,SystemResetWarning,0809.0,5.00,000.00,018.5,017.6,000.0,027.0,020.0,008.9,0000.0,0004.51,0026.32,0000.90
2024-04-06 20:32:00,SystemResetWarning,0809.0,5.01,000.00,018.5,017.5,000.0,027.0,020.0,009.1,0000.0,0004.44,0024.87,0000.87
2024-04-06 20:33:00,SystemResetWarning,0808.9,5.00,000.00,018.5,017.5,000.0,027.0,020.0,009.1,0000.0,0004.40,0023.48,0000.86
2024-04-06 20:34:00,SystemResetWarning,0808.7,4.99,000.00,018.4,017.4,000.0,027.0,020.0,009.0,0000.0,0004.63,0024.74,0000.90
2024-04-06 20:35:00,SystemResetWarning,0808.7,5.02,000.00,018.4,017.3,000.0,027.0,020.0,008.9,0000.0,0004.86,0028.58,0000.93
2024-04-06 20:36:00,SystemResetWarning,0808.8,5.00,000.00,018.4,017.3,000.0,027.0,020.0,009.0,0000.0,0004.70,0028.08,0000.89
2024-04-06 20:37:00,SystemResetWarning,0809.0,4.98,000.00,018.4,017.2,000.0,027.0,020.0,009.2,0000.0,0005.14,0032.03,0000.99
2024-04-06 20:38:00,SystemResetWarning,0809.1,5.00,000.00,018.4,017.2,000.0,027.0,020.0,009.3,0000.0,0006.19,0039.42,0001.20
2024-04-06 20:39:00,SystemResetWarning,0808.9,5.01,000.00,018.4,017.2,000.0,027.0,020.0,009.5,0000.0,0006.37,0039.54,0001.25
2024-04-06 20:40:00,SystemResetWarning,0808.8,5.01,000.00,018.4,017.2,000.0,027.0,020.0,009.4,0000.0,0006.47,0039.93,0001.29
2024-04-06 20:41:00,SystemResetWarning,0808.9,5.00,000.00,018.4,017.2,000.0,027.0,020.0,009.2,0000.0,0006.76,0042.82,0001.37
2024-04-06 20:42:00,SystemResetWarning,0809.2,4.99,000.00,018.3,017.1,000.0,027.0,020.0,009.4,0000.0,0006.86,0045.03,0001.40
2024-04-06 20:43:00,SystemResetWarning,0808.8,5.00,000.00,018.3,017.1,000.0,027.0,020.0,009.5,0000.0,0006.95,0046.39,0001.44
2024-04-06 20:44:00,SystemResetWarning,0808.7,5.02,000.00,018.3,017.1,000.0,027.0,020.0,009.4,0000.0,0007.01,0047.19,0001.44
2024-04-06 20:45:00,SystemResetWarning,0808.9,5.01,000.00,018.3,017.1,000.0,027.0,020.0,009.5,0000.0,0006.96,0046.85,0001.44
2024-04-06 20:46:00,SystemResetWarning,0809.1,4.98,000.00,018.3,017.1,000.0,027.0,020.0,009.8,0000.0,0006.84,0043.85,0001.44
2024-04-06 20:47:00,SystemResetWarning,0808.9,5.00,000.00,018.4,017.5,000.0,027.0,020.2,009.9,0000.0,0006.79,0042.23,0001.44
2024-04-06 20:48:00,SystemResetWarning,0808.9,5.02,000.00,018.6,018.6,000.0,027.1,020.7,009.8,0000.0,0006.25,0037.46,0001.33
2024-04-06 20:49:00,SystemResetWarning,0808.8,4.97,000.00,018.8,019.2,000.0,027.1,021.0,009.7,0000.0,0005.48,0031.89,0001.18
2024-04-06 20:50:00,SystemResetWarning,0808.9,5.00,000.00,018.8,019.0,000.0,027.0,020.9,009.5,0000.0,0005.87,0036.30,0001.26
2024-04-06 20:51:00,SystemResetWarning,0808.9,5.00,000.00,018.8,018.7,000.0,027.0,020.6,009.6,0000.0,0005.93,0038.12,0001.25
2024-04-06 20:52:00,SystemResetWarning,0808.9,5.00,000.00,018.8,018.5,000.0,027.0,020.4,009.6,0000.0,0005.63,0035.30,0001.16
2024-04-06 20:53:00,SystemResetWarning,0808.9,5.00,000.00,018.7,018.3,000.0,027.0,020.3,009.7,0000.0,0005.09,0030.28,0001.02
2024-04-06 20:54:00,SystemResetWarning,0808.9,5.00,000.00,018.7,018.1,000.0,027.0,020.2,009.9,0000.0,0004.70,0027.94,0000.94
2024-04-06 20:55:00,SystemResetWarning,0809.0,5.00,000.00,018.6,018.0,000.0,027.0,020.1,009.8,0000.0,0004.59,0027.05,0000.92
2024-04-06 20:56:00,SystemResetWarning,0809.1,5.00,000.00,018.6,017.8,000.0,027.0,020.0,009.9,0000.0,0004.44,0026.15,0000.88
2024-04-06 20:57:00,SystemResetWarning,0808.9,5.00,000.00,018.5,017.7,000.0,027.0,020.0,009.8,0000.0,0004.16,0023.25,0000.82
2024-04-06 20:58:00,SystemResetWarning,0809.0,5.01,000.00,018.5,017.6,000.0,027.0,020.0,009.7,0000.0,0003.87,0022.07,0000.76
2024-04-06 20:59:00,SystemResetWarning,0808.8,5.01,000.00,018.5,017.5,000.0,027.0,020.0,009.8,0000.0,0003.91,0022.96,0000.77
